This is the latest recevied weather packets stored in our database for station/object KC3UTO. If no packets are shown the sender has not sent any weather packets the latest 1 day(s).
| Time | Temp. | Humidity | Pressure | Rain* | Wind** | Luminosity | Snow |
|---|---|---|---|---|---|---|---|
| 1778025016 | 25° C | 36% | 1007.7 hPa | 0 mm | 0 m/s | 6 W/m² | - |
| 1778024714 | 25° C | 35% | 1007.9 hPa | 0 mm | 0.89 m/s, 96° | 8 W/m² | - |
| 1778024410 | 25° C | 36% | 1007.5 hPa | 0 mm | 2.68 m/s, 225° | 11 W/m² | - |
| 1778024108 | 25° C | 35% | 1007.6 hPa | 0 mm | 0.45 m/s, 269° | 15 W/m² | - |
| 1778023805 | 25° C | 35% | 1007.7 hPa | 0 mm | 0.89 m/s, 342° | 23 W/m² | - |
| 1778023503 | 25° C | 35% | 1007.9 hPa | 0 mm | 1.34 m/s, 284° | 29 W/m² | - |
| 1778023200 | 25° C | 35% | 1007.5 hPa | 0 mm | 2.68 m/s, 211° | 32 W/m² | - |
| 1778022897 | 25.56° C | 35% | 1007.5 hPa | 0 mm | 0.89 m/s, 260° | 38 W/m² | - |
| 1778022595 | 25.56° C | 35% | 1007.6 hPa | 0 mm | 1.34 m/s, 258° | 44 W/m² | - |
| 1778022293 | 25.56° C | 35% | 1007.4 hPa | 0 mm | 1.34 m/s, 77° | 50 W/m² | - |
| 1778021989 | 25.56° C | 36% | 1007.5 hPa | 0 mm | 0.89 m/s, 46° | 52 W/m² | - |
| 1778021686 | 25.56° C | 35% | 1007.5 hPa | 0 mm | 0.89 m/s, 256° | 47 W/m² | - |
| 1778021382 | 26.11° C | 34% | 1007.7 hPa | 0 mm | 1.79 m/s, 233° | 42 W/m² | - |
| 1778021079 | 26.11° C | 33% | 1007.2 hPa | 0 mm | 4.47 m/s, 228° | 45 W/m² | - |
| 1778020776 | 26.11° C | 33% | 1007.3 hPa | 0 mm | 1.34 m/s, 280° | 45 W/m² | - |
| 1778020473 | 26.67° C | 32% | 1007.4 hPa | 0 mm | 2.24 m/s, 250° | 50 W/m² | - |
| 1778020169 | 26.67° C | 31% | 1007.2 hPa | 0 mm | 0.89 m/s, 243° | 69 W/m² | - |
| 1778019866 | 26.67° C | 30% | 1007.2 hPa | 0 mm | 4.02 m/s, 231° | 70 W/m² | - |
| 1778019562 | 26.67° C | 30% | 1007.2 hPa | 0 mm | 3.13 m/s, 253° | 108 W/m² | - |
| 1778019259 | 26.67° C | 30% | 1007.4 hPa | 0 mm | 1.79 m/s, 267° | 108 W/m² | - |
| 1778018956 | 26.67° C | 31% | 1007.2 hPa | 0 mm | 1.79 m/s, 252° | 145 W/m² | - |
| 1778018653 | 27.22° C | 31% | 1007.3 hPa | 0 mm | 2.24 m/s, 208° | 119 W/m² | - |
| 1778018351 | 26.67° C | 31% | 1007.2 hPa | 0 mm | 1.34 m/s, 265° | 101 W/m² | - |
| 1778018049 | 26.67° C | 31% | 1007.1 hPa | 0 mm | 2.68 m/s, 193° | 84 W/m² | - |
| 1778017746 | 26.67° C | 31% | 1007.1 hPa | 0 mm | 1.34 m/s, 303° | 98 W/m² | - |
* Rain latest hour (hover to see other rain measurements)
** Current wind speed in m/s (hover to see current wind gust speed)